Willimantic, CT

8:58 PM EDT on October 22, 2019 (GMT -0400)
Windham

Weather History for KIJD - September, 2019

Change the Weather History Date:

Sunday, September 15, 2019

  Actual Average Record
Temperature  
Mean Temperature 69 °F -  
Max Temperature 78 °F 74 °F 87 °F (1962)
Min Temperature 59 °F 48 °F 31 °F (1964)
Cooling Degree Days 4    
Growing Degree Days 19 (Base 50)    
Moisture  
Dew Point 61 °F    
Average Humidity 86    
Maximum Humidity 100    
Minimum Humidity 44    
Precipitation  
Precipitation 0.00 in - - ()
Sea Level Pressure  
Sea Level Pressure 30.13 in    
Wind  
Wind Speed 1 mph ()    
Max Wind Speed 8 mph    
Max Gust Speed -    
Visibility 5.8 miles    
Events Fog , Rain    
Averages and records for this station are not official NWS values.
T = Trace of Precipitation, MM = Missing Value Source: Averaged Metar Reports

Daily Weather History Graph

Daily Weather History Graph

Search for Another Location

Airport or City:

Astronomy

Sep. 15, 2019 Rise Set
Actual Time 6:28 AM EDT 6:58 PM EDT
Civil Twilight 6:00 AM EDT 7:26 PM EDT
Nautical Twilight 5:27 AM EDT 7:59 PM EDT
Astronomical Twilight 4:53 AM EDT 8:33 PM EDT
Moon 8:04 PM EDT (9/15) 7:36 AM EDT (9/15)
Length of Visible Light 13h 25m
Length of Day
12h 29m
Full, 98% of the Moon is Illuminated
Sep 15
Full
Sep 21
Last Quarter
Sep 28
New
Oct 5
First Quarter
Oct 13
Full

Hourly Weather History & Observations

Time (EDT) Temp. Dew Point Humidity Pressure Visibility Wind Dir Wind Speed Gust Speed Precip Events Conditions
12:12 AM 66.9 °F 66.9 °F 100% 30.17 in 4.0 mi Calm Calm - 0.00 in Rain Light Rain
1:08 AM 66.9 °F 66.0 °F 97% 30.17 in 10.0 mi SSW 3.5 mph - N/A   Mostly Cloudy
1:11 AM 66.9 °F 66.0 °F 97% 30.17 in 10.0 mi Calm Calm - N/A   Mostly Cloudy
1:21 AM 66.9 °F 66.0 °F 97% 30.17 in 10.0 mi Calm Calm - N/A   Mostly Cloudy
1:52 AM 66.9 °F 66.0 °F 97% 30.16 in 10.0 mi South 4.6 mph - N/A   Overcast
2:34 AM 64.9 °F 64.9 °F 100% 30.15 in 1.8 mi SSW 3.5 mph - N/A   Partly Cloudy
2:52 AM 63.0 °F 63.0 °F 100% 30.15 in 0.2 mi North 3.5 mph - N/A Fog Fog
3:18 AM 64.9 °F 64.9 °F 100% 30.14 in 1.2 mi Calm Calm - N/A   Overcast
3:21 AM 64.9 °F 64.9 °F 100% 30.14 in 3.0 mi Calm Calm - N/A   Overcast
3:38 AM 63.0 °F 63.0 °F 100% 30.15 in 0.8 mi Calm Calm - N/A   Mostly Cloudy
3:49 AM 62.6 °F 62.6 °F 100% 30.15 in 0.5 mi Calm Calm - N/A Fog Fog
3:52 AM 63.0 °F 63.0 °F 100% 30.14 in 0.5 mi Calm Calm - N/A Fog Fog
4:10 AM 63.0 °F 62.1 °F 97% 30.15 in 0.2 mi Calm Calm - N/A Fog Fog
4:26 AM 63.0 °F 63.0 °F 100% 30.15 in 0.2 mi Calm Calm - N/A Fog Fog
4:52 AM 63.0 °F 62.1 °F 97% 30.16 in 0.2 mi Calm Calm - N/A Fog Fog
5:48 AM 60.8 °F 60.8 °F 100% 30.17 in 0.2 mi Calm Calm - N/A Fog Fog
5:52 AM 61.0 °F 61.0 °F 100% 30.17 in 0.2 mi Calm Calm - N/A Fog Fog
6:18 AM 60.1 °F 60.1 °F 100% 30.17 in 0.2 mi Calm Calm - N/A Fog Fog
6:52 AM 60.1 °F 59.0 °F 96% 30.17 in 0.2 mi Calm Calm - N/A Fog Fog
7:52 AM 61.0 °F 60.1 °F 97% 30.17 in 0.2 mi Calm Calm - N/A Fog Fog
8:10 AM 62.1 °F 61.0 °F 96% 30.18 in 1.0 mi Calm Calm - N/A   Mist
8:14 AM 62.1 °F 62.1 °F 100% 30.17 in 3.0 mi Calm Calm - N/A   Mostly Cloudy
8:25 AM 63.0 °F 62.1 °F 97% 30.17 in 10.0 mi Calm Calm - N/A   Scattered Clouds
8:52 AM 64.0 °F 62.1 °F 93% 30.17 in 10.0 mi Calm Calm - N/A   Clear
9:52 AM 68.0 °F 62.1 °F 81% 30.17 in 10.0 mi NW 3.5 mph - N/A   Scattered Clouds
10:52 AM 71.1 °F 57.9 °F 63% 30.15 in 10.0 mi West 5.8 mph - N/A   Clear
11:52 AM 73.9 °F 54.0 °F 50% 30.14 in 10.0 mi West 5.8 mph - N/A   Clear
12:52 PM 75.0 °F 52.0 °F 44% 30.12 in 10.0 mi West 5.8 mph - N/A   Clear
1:52 PM 75.9 °F 54.0 °F 46% 30.11 in 10.0 mi West 8.1 mph - N/A   Clear
2:52 PM 75.9 °F 54.0 °F 46% 30.09 in 10.0 mi WSW 6.9 mph - N/A   Clear
3:52 PM 78.1 °F 55.9 °F 46% 30.07 in 10.0 mi Variable 5.8 mph - N/A   Clear
4:52 PM 78.1 °F 57.0 °F 48% 30.07 in 10.0 mi WNW 5.8 mph - N/A   Clear
5:52 PM 73.9 °F 57.0 °F 55% 30.08 in 10.0 mi WNW 3.5 mph - N/A   Clear
6:52 PM 71.1 °F 59.0 °F 66% 30.07 in 10.0 mi Calm Calm - N/A   Clear
7:52 PM 66.9 °F 61.0 °F 81% 30.07 in 10.0 mi Calm Calm - N/A   Partly Cloudy
8:52 PM 64.0 °F 60.1 °F 87% 30.07 in 10.0 mi Calm Calm - N/A   Clear
10:52 PM 60.1 °F 59.0 °F 96% 30.07 in 10.0 mi Calm Calm - N/A   Clear
11:35 PM 60.1 °F 57.9 °F 93% 30.06 in 10.0 mi Calm Calm - N/A   Partly Cloudy
11:52 PM 59.0 °F 57.9 °F 96% 30.06 in 10.0 mi Calm Calm - N/A   Clear